Location: *
(43.0409°N, 0.1694°E)
Time: 23:13:23
(UTC+00:00)

Cosmos 2297 Rocket - Pass Details

Date: 03 October 2023
Orbit: 838 x 844 km, 71.0° (Epoch: 05 December)

Event Time Altitude Azimuth Distance (km) Brightness Sun altitude
Exits shadow 04:09:01 10° 191° (S) 2,437 4.3 -20.6°
Maximum altitude 04:14:33 65° 111° (ESE) 919 2.5 -19.7°
Drops below altitude 10° 04:20:08 10° 30° (NNE) 2,461 5.2 -18.7°
Sets 04:22:35 0° 28° (NNE) 3,400 5.9 -18.2°
